| time (UTC) | temp F | wind direction | speed MPH | gust MPH | rain 1hr in | rain 24hr in | rain mn in | humidity % | barometer mb |
| 20260509163031 | 61 | 309 | 1.0 | 4.0 | 0.00 | 0.00 | 0.00 | 64 | 1019.1 |
| 20260509161531 | 60 | 329 | 2.0 | 5.0 | 0.00 | 0.00 | 0.00 | 66 | 1019.2 |
| 20260509154530 | 57 | 34 | 4.0 | 6.0 | 0.00 | 0.00 | 0.00 | 72 | 1019.5 |
| 20260509153031 | 55 | 342 | 2.0 | 6.0 | 0.00 | 0.00 | 0.00 | 75 | 1019.4 |
| 20260509151532 | 55 | 320 | 3.0 | 5.0 | 0.00 | 0.00 | 0.00 | 77 | 1019.3 |
| 20260509150030 | 52 | 30 | 1.0 | 4.0 | 0.00 | 0.00 | 0.00 | 81 | 1019.3 |
| 20260509143028 | 48 | 149 | 0.0 | 2.0 | 0.00 | 0.00 | 0.00 | 85 | 1019.3 |
| 20260509140030 | 44 | 189 | 2.0 | 4.0 | 0.00 | 0.00 | 0.00 | 89 | 1019.1 |
| 20260509131554 | 43 | 318 | 0.0 | 2.0 | 0.00 | 0.00 | 0.00 | 87 | 1019.0 |
| 20260509130032 | 45 | 302 | 1.0 | 4.0 | 0.00 | 0.00 | 0.00 | 86 | 1018.7 |
| 20260509124530 | 46 | 173 | 1.0 | 3.0 | 0.00 | 0.00 | 0.00 | 86 | 1018.7 |
| 20260509123030 | 46 | 143 | 0.0 | 3.0 | 0.00 | 0.00 | 0.00 | 86 | 1018.6 |
| 20260509121531 | 45 | 180 | 0.0 | 3.0 | 0.00 | 0.00 | 0.00 | 85 | 1018.7 |
| 20260509120040 | 46 | 145 | 0.0 | 2.0 | 0.00 | 0.00 | 0.00 | 85 | 1018.6 |
| 20260509113029 | 46 | 161 | 1.0 | 3.0 | 0.00 | 0.00 | 0.00 | 83 | 1018.6 |
| 20260509111535 | 47 | 200 | 2.0 | 4.0 | 0.00 | 0.00 | 0.00 | 81 | 1018.5 |
| 20260509104530 | 50 | 36 | 2.0 | 6.0 | 0.00 | 0.00 | 0.00 | 78 | 1018.6 |
| 20260509103032 | 51 | 34 | 3.0 | 5.0 | 0.00 | 0.00 | 0.00 | 78 | 1018.7 |
| 20260509101529 | 51 | 36 | 3.0 | 5.0 | 0.00 | 0.00 | 0.00 | 78 | 1018.7 |
| 20260509100108 | 51 | 39 | 3.0 | 5.0 | 0.00 | 0.00 | 0.00 | 77 | 1018.7 |
| 20260509094529 | 51 | 32 | 4.0 | 6.0 | 0.00 | 0.00 | 0.00 | 77 | 1018.7 |
| 20260509093029 | 50 | 37 | 3.0 | 5.0 | 0.00 | 0.00 | 0.00 | 76 | 1018.8 |
| 20260509091531 | 51 | 20 | 3.0 | 4.0 | 0.00 | 0.00 | 0.00 | 76 | 1018.9 |
| 20260509090028 | 51 | 48 | 2.0 | 5.0 | 0.00 | 0.00 | 0.00 | 76 | 1019.0 |
| 20260509084530 | 50 | 336 | 1.0 | 4.0 | 0.00 | 0.00 | 0.00 | 77 | 1019.1 |
| 20260509083033 | 50 | 289 | 1.0 | 5.0 | 0.00 | 0.00 | 0.00 | 76 | 1019.2 |
| 20260509081531 | 51 | 246 | 3.0 | 7.0 | 0.00 | 0.00 | 0.00 | 74 | 1019.3 |
| 20260509080107 | 52 | 207 | 2.0 | 4.0 | 0.00 | 0.00 | 0.00 | 74 | 1019.5 |
| 20260509073031 | 53 | 185 | 4.0 | 9.0 | 0.00 | 0.00 | 0.00 | 73 | 1019.5 |
| 20260509071531 | 53 | 193 | 4.0 | 9.0 | 0.00 | 0.00 | 0.00 | 72 | 1019.5 |
| 20260509070032 | 53 | 211 | 4.0 | 8.0 | 0.00 | 0.00 | 0.00 | 70 | 1019.6 |
| 20260509064530 | 54 | 240 | 3.0 | 7.0 | 0.00 | 0.00 | 0.00 | 68 | 1019.7 |
| 20260509063031 | 54 | 299 | 0.0 | 5.0 | 0.00 | 0.00 | 0.00 | 68 | 1019.9 |
| 20260509061538 | 54 | 284 | 2.0 | 6.0 | 0.00 | 0.00 | 0.00 | 68 | 1019.8 |
| 20260509060032 | 54 | 290 | 1.0 | 3.0 | 0.00 | 0.00 | 0.00 | 67 | 1019.8 |
| 20260509054529 | 55 | 306 | 1.0 | 5.0 | 0.00 | 0.00 | 0.00 | 65 | 1019.7 |
| 20260509053031 | 56 | 191 | 3.0 | 10.0 | 0.00 | 0.00 | 0.00 | 64 | 1019.7 |
| 20260509043030 | 55 | 146 | 4.0 | 7.0 | 0.00 | 0.00 | 0.00 | 64 | 1019.3 |
| 20260509041646 | 56 | 123 | 1.0 | 6.0 | 0.00 | 0.00 | 0.00 | 63 | 1019.1 |
| 20260509040029 | 56 | 177 | 2.0 | 4.0 | 0.00 | 0.00 | 0.00 | 63 | 1018.9 |
| 20260509034530 | 57 | 223 | 4.0 | 6.0 | 0.00 | 0.00 | 0.00 | 61 | 1018.6 |
| 20260509033031 | 58 | 218 | 5.0 | 9.0 | 0.00 | 0.00 | 0.00 | 59 | 1018.4 |
| 20260509031531 | 59 | 230 | 7.0 | 13.0 | 0.00 | 0.00 | 0.00 | 56 | 1018.2 |
| 20260509030030 | 61 | 225 | 8.0 | 16.0 | 0.00 | 0.00 | 0.00 | 54 | 1018.0 |
| 20260509024529 | 61 | 214 | 10.0 | 18.0 | 0.00 | 0.00 | 0.00 | 54 | 1017.9 |
| 20260509023032 | 62 | 214 | 10.0 | 16.0 | 0.00 | 0.00 | 0.00 | 52 | 1017.8 |
| 20260509021616 | 63 | 214 | 10.0 | 16.0 | 0.00 | 0.00 | 0.00 | 51 | 1017.7 |
| 20260509020108 | 64 | 215 | 10.0 | 20.0 | 0.00 | 0.00 | 0.00 | 49 | 1017.6 |
| 20260509014605 | 65 | 218 | 12.0 | 20.0 | 0.00 | 0.00 | 0.00 | 48 | 1017.4 |
| 20260509013030 | 65 | 237 | 11.0 | 23.0 | 0.00 | 0.00 | 0.00 | 46 | 1017.4 |
| 20260509010029 | 69 | 256 | 9.0 | 22.0 | 0.00 | 0.00 | 0.00 | 43 | 1017.2 |
| 20260509004530 | 69 | 256 | 10.0 | 17.0 | 0.00 | 0.00 | 0.00 | 42 | 1017.1 |
| 20260509001531 | 70 | 259 | 11.0 | 21.0 | 0.00 | 0.00 | 0.00 | 39 | 1016.8 |
| 20260509000041 | 70 | 253 | 10.0 | 22.0 | 0.00 | 0.00 | 0.00 | 39 | 1016.7 |
| 20260508234530 | 70 | 254 | 11.0 | 22.0 | 0.00 | 0.00 | 0.00 | 39 | 1016.7 |
| 20260508233031 | 69 | 250 | 11.0 | 24.0 | 0.00 | 0.00 | 0.00 | 39 | 1016.6 |
| 20260508231532 | 70 | 250 | 13.0 | 24.0 | 0.00 | 0.00 | 0.00 | 40 | 1016.6 |
| 20260508230029 | 69 | 254 | 12.0 | 22.0 | 0.00 | 0.00 | 0.00 | 42 | 1016.7 |
| 20260508224532 | 69 | 255 | 13.0 | 23.0 | 0.00 | 0.00 | 0.00 | 42 | 1016.8 |
| 20260508223107 | 68 | 252 | 15.0 | 25.0 | 0.00 | 0.00 | 0.00 | 43 | 1016.7 |
| 20260508221605 | 68 | 252 | 15.0 | 28.0 | 0.00 | 0.00 | 0.00 | 44 | 1016.7 |
| 20260508214530 | 68 | 256 | 12.0 | 21.0 | 0.00 | 0.00 | 0.00 | 45 | 1016.8 |
| 20260508213032 | 67 | 254 | 13.0 | 25.0 | 0.00 | 0.00 | 0.00 | 46 | 1016.9 |
| 20260508211529 | 66 | 256 | 15.0 | 28.0 | 0.00 | 0.00 | 0.00 | 47 | 1016.8 |
| 20260508210031 | 67 | 253 | 15.0 | 32.0 | 0.00 | 0.00 | 0.00 | 47 | 1016.8 |
| 20260508204530 | 67 | 253 | 14.0 | 33.0 | 0.00 | 0.00 | 0.00 | 47 | 1016.9 |
| 20260508201530 | 66 | 265 | 14.0 | 26.0 | 0.00 | 0.00 | 0.00 | 48 | 1016.7 |
| 20260508200054 | 67 | 268 | 12.0 | 24.0 | 0.00 | 0.00 | 0.00 | 49 | 1016.8 |
| 20260508194532 | 67 | 247 | 10.0 | 21.0 | 0.00 | 0.00 | 0.00 | 49 | 1016.8 |
| 20260508193031 | 65 | 251 | 9.0 | 22.0 | 0.00 | 0.00 | 0.00 | 51 | 1017.0 |
| 20260508191530 | 64 | 266 | 10.0 | 22.0 | 0.00 | 0.00 | 0.00 | 53 | 1017.0 |
| 20260508190030 | 60 | 253 | 11.0 | 21.0 | 0.00 | 0.00 | 0.00 | 57 | 1017.1 |
| 20260508184531 | 58 | 256 | 11.0 | 22.0 | 0.00 | 0.00 | 0.00 | 59 | 1017.2 |
| 20260508183030 | 55 | 296 | 7.0 | 14.0 | 0.00 | 0.00 | 0.00 | 62 | 1017.4 |
| 20260508181531 | 54 | 263 | 6.0 | 13.0 | 0.00 | 0.00 | 0.00 | 64 | 1017.4 |
| 20260508180032 | 53 | 285 | 6.0 | 13.0 | 0.00 | 0.00 | 0.00 | 64 | 1017.1 |
| 20260508174529 | 53 | 276 | 6.0 | 16.0 | 0.00 | 0.00 | 0.00 | 64 | 1017.2 |
| 20260508173029 | 53 | 277 | 6.0 | 14.0 | 0.00 | 0.00 | 0.00 | 64 | 1016.9 |
| 20260508171535 | 54 | 280 | 5.0 | 12.0 | 0.00 | 0.00 | 0.00 | 64 | 1016.7 |
| 20260508170029 | 54 | 280 | 7.0 | 19.0 | 0.00 | 0.00 | 0.00 | 64 | 1016.5 |
| 20260508164532 | 54 | 272 | 8.0 | 17.0 | 0.00 | 0.00 | 0.00 | 65 | 1016.5 |